Flag for U.S.A. Weather past 2 weeks in Visalia, California, U.S.A.

Now
52 °F

Clear.


Feels Like: 50 °F
Forecast: 45 / 58 °F
Wind: 6 mph from North

Location: Visalia Municipal

Current Time: Jan 27, 2015 at 9:21:07 PM

Latest Report: Jan 27, 2015 at 8:55 PM


Visibility: 10 mi

Pressure: 30.23 "Hg

Humidity: 77%

Dew point: 45 °F

Location of VisaliaLocation

Historic Weather in Visalia — Graph

°F

Visalia temperature yesterday

Maximum temperature yesterday: 57 °F (at 1:35 PM)
Minimum temperature yesterday: 36 °F (at 12:55 AM)
Average temperature yesterday: 46 °F

Past Weeks' High & Low Weather Summary

 TemperatureHumidityPressure
High66 °F (Jan 27, 3:15 PM)94% (Jan 14, 1:15 PM)30.41 "Hg (Jan 14, 1:15 PM)
Low36 °F (Jan 23, 2:15 AM)60% (Jan 27, 3:15 PM)30.00 "Hg (Jan 26, 3:55 PM)
Average46 °F80%30.23 "Hg
* Reported Jan 12 8:15 PM — Jan 27 8:15 PM, Visalia, Weather by CustomWeather, © 2014

Note: Actual official high and low records may vary slightly from our data, if they occured in-between our weather recording intervals... More about our weather records

Advertising

Visalia weather history for previous 24 hours

 ConditionsComfort  
Time TempWeatherWind HumidityBarometerVisibility
8:15 PM
Jan 27
52 °FClear.5 mph77%30.22 "Hg10 mi
7:55 PM52 °FClear.5 mph77%30.22 "Hg10 mi
7:35 PM54 °FClear.No wind77%30.22 "Hg10 mi
6:55 PM55 °FClear.3 mph72%30.22 "Hg10 mi
6:35 PM57 °FClear.3 mph72%30.21 "Hg10 mi
6:15 PM57 °FClear.3 mph72%30.21 "Hg10 mi
5:55 PM57 °FClear.No wind72%30.21 "Hg10 mi
5:35 PM59 °FClear.No wind68%30.21 "Hg10 mi
5:15 PM61 °FSunny.No wind68%30.20 "Hg10 mi
4:55 PM63 °FSunny.3 mph68%30.20 "Hg10 mi
4:35 PM63 °FPassing clouds.No wind68%30.20 "Hg10 mi
4:15 PM64 °FScattered clouds.No wind64%30.20 "Hg10 mi
3:55 PM64 °FPassing clouds.5 mph60%30.20 "Hg10 mi
3:35 PM64 °FScattered clouds.5 mph64%30.20 "Hg10 mi
3:15 PM66 °FScattered clouds.5 mph60%30.20 "Hg10 mi
2:55 PM64 °FPassing clouds.No wind64%30.20 "Hg10 mi
2:35 PM64 °FScattered clouds.No wind64%30.20 "Hg10 mi
2:15 PM63 °FPartly sunny.No wind68%30.20 "Hg10 mi
1:55 PM64 °FPassing clouds.No wind64%30.20 "Hg10 mi
1:35 PM63 °FPartly sunny.5 mph73%30.19 "Hg10 mi
1:15 PM63 °FOvercast.6 mph68%30.20 "Hg10 mi
12:55 PM63 °FOvercast.3 mph68%30.21 "Hg10 mi
12:35 PM61 °FOvercast.6 mph72%30.22 "Hg10 mi
12:15 PM61 °FMostly cloudy.6 mph72%30.23 "Hg10 mi
11:55 AM61 °FOvercast.6 mph72%30.24 "Hg7 mi
11:35 AM59 °FOvercast.3 mph77%30.25 "Hg9 mi
11:15 AM59 °FMostly cloudy.3 mph77%30.25 "Hg8 mi
10:55 AM57 °FOvercast.3 mph82%30.25 "Hg5 mi
10:35 AM57 °FMore clouds than sun.No wind82%30.25 "Hg3 mi
10:15 AM55 °FMostly cloudy.No wind82%30.25 "Hg3 mi
9:55 AM55 °FOvercast.No wind82%30.25 "Hg3 mi
9:35 AM54 °FOvercast.No wind82%30.24 "Hg3 mi
9:15 AM54 °FOvercast.No wind82%30.23 "Hg3 mi
8:55 AM54 °FOvercast.No wind82%30.23 "Hg2 mi
8:35 AM54 °FOvercast.No wind82%30.22 "Hg3 mi
8:15 AM54 °FOvercast.No wind77%30.22 "Hg2 mi
7:55 AM52 °FOvercast.No wind82%30.20 "Hg2 mi
7:35 AM52 °FOvercast.No wind82%30.20 "Hg2 mi
7:15 AM52 °FOvercast.5 mph82%30.19 "Hg3 mi
6:55 AM52 °FOvercast.6 mph82%30.18 "Hg3 mi
6:35 AM52 °FOvercast.5 mph82%30.17 "Hg2 mi
6:15 AM52 °FMostly cloudy.6 mph82%30.16 "Hg3 mi
5:55 AM52 °FMostly cloudy.6 mph82%30.16 "Hg2 mi
5:35 AM52 °FOvercast.3 mph82%30.15 "Hg3 mi
5:15 AM52 °FOvercast.No wind82%30.15 "Hg2 mi
4:55 AM52 °FMostly cloudy.5 mph82%30.15 "Hg2 mi
4:35 AM52 °FMostly cloudy.3 mph82%30.15 "Hg2 mi
4:15 AM52 °FOvercast.No wind77%30.14 "Hg2 mi
3:55 AM52 °FOvercast.3 mph82%30.14 "Hg2 mi
3:35 AM52 °FOvercast.No wind82%30.14 "Hg2 mi
3:15 AM52 °FOvercast.5 mph82%30.13 "Hg2 mi
2:55 AM52 °FOvercast.3 mph82%30.13 "Hg2 mi
2:35 AM52 °FMostly cloudy.5 mph82%30.11 "Hg2 mi
2:15 AM52 °FOvercast.5 mph82%30.11 "Hg3 mi
1:55 AM52 °FOvercast.6 mph82%30.11 "Hg3 mi
1:35 AM52 °FOvercast.5 mph82%30.10 "Hg3 mi
1:15 AM52 °FOvercast.8 mph82%30.10 "Hg3 mi
12:55 AM52 °FOvercast.9 mph82%30.10 "Hg3 mi
12:35 AM52 °FOvercast.5 mph82%30.09 "Hg4 mi
12:15 AM52 °FOvercast.5 mph77%30.09 "Hg4 mi
11:55 PM
Jan 26
52 °FOvercast.No wind77%30.10 "Hg3 mi
11:35 PM54 °FOvercast.No wind72%30.09 "Hg4 mi
11:15 PM54 °FOvercast.No wind77%30.09 "Hg5 mi
10:55 PM52 °FOvercast.6 mph77%30.08 "Hg4 mi
10:35 PM52 °FOvercast.No wind77%30.07 "Hg5 mi
10:15 PM52 °FOvercast.3 mph77%30.05 "Hg3 mi
9:55 PM52 °FOvercast.8 mph77%30.05 "Hg3 mi
9:35 PM52 °FOvercast.7 mph77%30.05 "Hg4 mi
9:15 PM52 °FOvercast.9 mph77%30.05 "Hg3 mi
Weather by CustomWeather, © 2014

See weather overviewHow to use our weather pages